User: anonymous   Login
Location: Carabito
(9.8355°N, 67.9249°W)
Time: 09:14:18
(UTC+00:00)
Language:

Cosmos 2360 Rocket - Orbit

View from above orbital plane
View from above orbital plane
View from above satellite
View from above satellite

Ground track
Ground track

The orbit data is extracted from the following two-line orbital elements,

1 25407U 98045B   24197.18487875 -.00000131  00000-0 -41943-4 0  9997
2 25407  71.0120   8.4852 0009187 234.1193 125.9077 14.16013064342079
Epoch (UTC): 15 July 2024 04:26:13
Eccentricity: 0.0009187
inclination: 71.0120°
perigee height: 832 km
apogee height: 845 km
right ascension of ascending node: 8.4852°
argument of perigee: 234.1193°
revolutions per day: 14.16013064
mean anomaly at epoch: 125.9077°
orbit number at epoch: 34207

The dashed part of the orbit path shows where the satellite is in the earth's shadow,  

DLR